Weather Roundup
Issued by NWS

Home | Current Version | Previous Version | Graphics & Text | Print | Product List | Glossary Off
Versions: 1 2 3 4 5 6 7 8 9 10 11 12 13 14 15 16 17 18 19 20 21 22 23 24 25 26 27 28 29 30 31 32 33 34 35 36 37 38 39 40 41 42 43 44 45 46 47 48 49 50

954
NZUS93 KARX 172210
HRRWXR

CURRENT HOURLY OBSERVATIONS ACROSS
MUCH OF THE UPPER MISSISSIPPI VALLEY
NATIONAL WEATHER SERVICE LA CROSSE WI
400 PM CST SAT FEB 17 2018


...SOUTHEAST MINNESOTA...


CITY           SKY/WX    TMP DP  RH WIND       PRES   REMARKS
ROCHESTER      FAIR      28  23  81 W14       29.93R WCI  17
ROCHESTER/MAYO CLOUDY    31  24  75 W13G18    29.94R WCI  21
WINONA         PTSUNNY   32  25  74 W7        29.93R WCI  26
AUSTIN         FAIR      30  23  74 W13G18    29.94R WCI  20
ALBERT LEA     FAIR      32  23  69 W10G16    29.95R WCI  24
DODGE CENTER   FAIR      28  23  80 W9        29.93R WCI  20
PRESTON        PTSUNNY   29  24  80 W15       29.94R WCI  18
OWATONNA       FAIR      34  25  69 W13       29.94R WCI  25
FARIBAULT      FAIR      36  21  55 W13       29.94R WCI  27
$$

...ELSEWHERE IN MINNESOTA...


CITY           SKY/WX    TMP DP  RH WIND       PRES   REMARKS
MINNEAPOLIS    PTSUNNY   37  18  46 W20G30    29.91R WCI  27
INTNL FALLS    FAIR      20   3  48 W16G23    29.79R WCI   6
DULUTH         FAIR      27  11  51 W22G29    29.79R WCI  13
RED WING       FAIR      32  21  64 W10       29.91S WCI  24
REDWOOD FALLS  MOSUNNY   36  16  44 NW15G22   29.97R WCI  27
MANKATO        FAIR      35  19  52 NW14      29.96R WCI  26
WORTHINGTON    SUNNY     33  23  66 W17       29.99R WCI  22
FAIRMONT       SUNNY     35  25  66 NW14      29.98R WCI  26
$$

...SOUTHWEST WISCONSIN...


CITY           SKY/WX    TMP DP  RH WIND       PRES   REMARKS
LA CROSSE      CLOUDY    31  23  72 W15       29.94R WCI  20
PRAIRIE DU CHI CLOUDY    30  22  71 W12       29.97R WCI  20
BOSCOBEL       CLOUDY    31  23  72 W7        29.96R WCI  24
LONE ROCK      CLOUDY    29  24  82 W7        29.95R WCI  22
PLATTEVILLE    CLOUDY    29  26  90 W13       29.95R WCI  19
FORT MC COY    CLOUDY    28  24  82 W5        29.93R WCI  23
CAMP DOUGLAS   MIX PCPN  28  23  80 W12       29.91R WCI  18
MAUSTON-NEW LI CLOUDY    29  22  74 W9        29.90R WCI  21
VIROQUA        CLOUDY    28  24  86 W12       29.91R WCI  17
WIS DELLS      PTSUNNY   27  22  82 SW7       29.91R WCI  20
$$

...ELSEWHERE IN WISCONSIN...


CITY           SKY/WX    TMP DP  RH WIND       PRES   REMARKS
MILWAUKEE      LGT SNOW  31  28  89 SW6       29.92F FOG     WCI  25
MADISON        LGT SNOW  28  26  92 SW5       29.93S VSB 3/4 WCI  23
GREEN BAY      LGT SNOW  26  22  84 SW7       29.88S FOG     WCI  18
EAU CLAIRE     FAIR      29  22  75 SW15      29.88R WCI  18
BLACK RVR FLS  CLOUDY    30  22  72 W8        29.92R WCI  22
MEDFORD        CLOUDY    24  20  84 SW7       29.81S WCI  16
WAUSAU         CLOUDY    25  19  78 W8        29.82R WCI  16
WIS RAPIDS     CLOUDY    27  20  75 W9        29.89R WCI  18
MARSHFIELD     CLOUDY    26  20  77 W12       29.85R WCI  16
RICE LAKE      FAIR      33  20  58 W15       29.86R WCI  23
$$

...NORTHEAST IOWA...


CITY           SKY/WX    TMP DP  RH WIND       PRES   REMARKS
WATERLOO       FAIR      31  25  78 NW8       29.99R WCI  23
DUBUQUE        CLOUDY    27  21  78 W14       29.96R WCI  16
DECORAH        CLOUDY    28  25  86 VRB7G13   29.93R WCI  21
MASON CITY     PTSUNNY   32  25  75 W16       29.99R WCI  21
CHARLES CITY   PTSUNNY   30  30 100 W16       29.98R WCI  19
OELWEIN        CLOUDY    28  28 100 W15       29.97R WCI  17
$$

...ELSEWHERE IN IOWA...


CITY           SKY/WX    TMP DP  RH WIND       PRES   REMARKS
DES MOINES     MOSUNNY   41  30  65 NW14      30.04R
IOWA CITY      CLOUDY    34  23  64 NW15      30.04R WCI  24
FORT DODGE     SUNNY     33  28  81 W12G18    30.03R WCI  24
MARSHALLTOWN   PTSUNNY   32  28  85 W13       30.03R WCI  22
CEDAR RAPIDS   CLOUDY    31  25  78 NW21      30.01R WCI  18
$$

...NORTHERN ILLINOIS...


CITY           SKY/WX    TMP DP  RH WIND       PRES   REMARKS
CHICAGO-OHARE  SNOW      32  31  96 S3        29.92S VSB 1/4
CHICAGO-MIDWAY SNOW      33  32  96 SW7       29.93F VSB 1/2 WCI  27
MOLINE         CLOUDY    32  26  78 W17       29.99R WCI  21
ROCKFORD       SNOW      30  28  92 W3        29.96R VSB 1/2
PEORIA         CLOUDY    35  30  82 W14       30.00R WCI  26
$$

NOTE: "FAIR" INDICATES FEW OR NO CLOUDS BELOW 12,000 FEET WITH NO
SIGNIFICANT WEATHER AND/OR OBSTRUCTIONS TO VISIBILITY. WIND
SPEEDS ARE IN MILES-PER-HOUR.




USA.gov is the U.S. government's official web portal to all federal, state and local government web resources and services.